Flag for South Korea Weather past 2 weeks in Busan, South Korea

Now
37 °F

Clear.


Feels Like: 33 °F
Forecast: 40 / 50 °F
Wind: 6 mph from Northeast

Location: Pusan / Kimhae International Airport

Current Time: Mar 6, 2015 at 1:53:41 AM

Latest Report: Mar 6, 2015 at 1:00 AM


Visibility: 10 mi

Pressure: 30.30 "Hg

Humidity: 60%

Dew point: 25 °F

Location of BusanLocation

Historic Weather in Busan — Graph

°F

Busan temperature yesterday

Maximum temperature yesterday: 46 °F (at 2:00 PM)
Minimum temperature yesterday: 28 °F (at 6:00 AM)
Average temperature yesterday: 39 °F

Past Weeks' High & Low Weather Summary

 TemperatureHumidityPressure
High61 °F (Feb 22, 3:00 PM)100% (Feb 22, 6:00 AM)30.42 "Hg (Feb 22, 6:00 AM)
Low28 °F (Feb 27, 6:00 AM)16% (Feb 27, 5:00 PM)29.83 "Hg (Mar 3, 4:00 PM)
Average43 °F58%30.14 "Hg
* Reported Feb 19 5:00 AM — Midnight between Mar 5 and Mar 6, Busan, Weather by CustomWeather, © 2015

Note: Actual official high and low records may vary slightly from our data, if they occured in-between our weather recording intervals... More about our weather records

Advertising

Busan weather history for previous 24 hours

 ConditionsComfort  
Time TempWeatherWind HumidityBarometerVisibility
12:00 AM
Fri, Mar 6
39 °FClear.7 mph56%30.30 "Hg10 mi
11:00 PM
Thu, Mar 5
39 °FClear.12 mph52%30.30 "Hg10 mi
10:00 PM39 °FClear.9 mph56%30.30 "Hg10 mi
9:00 PM41 °FPassing clouds.9 mph49%30.30 "HgN/A
8:00 PM41 °FPassing clouds.12 mph53%30.30 "HgN/A
7:00 PM43 °FPassing clouds.12 mph49%30.27 "HgN/A
6:00 PM43 °FPartly sunny.13 mph49%30.24 "HgN/A
5:00 PM45 °FPartly sunny.10 mph42%30.24 "HgN/A
4:00 PM46 °FPartly sunny.3 mph37%30.24 "HgN/A
3:00 PM46 °FPartly sunny.7 mph37%30.27 "HgN/A
2:00 PM46 °FSunny.6 mph32%30.27 "Hg10 mi
1:00 PM45 °FSunny.2 mph29%30.30 "Hg10 mi
12:00 PM43 °FSunny.6 mph36%30.33 "Hg10 mi
11:00 AM41 °FSunny.3 mph36%30.33 "Hg10 mi
10:00 AM36 °FSunny.6 mph44%30.33 "Hg10 mi
9:00 AM32 °FSunny.2 mph51%30.33 "Hg10 mi
8:00 AM30 °FSunny.6 mph55%30.30 "Hg10 mi
7:00 AM28 °FSunny.5 mph59%30.27 "Hg10 mi
6:00 AM28 °FClear.5 mph59%30.27 "Hg10 mi
5:00 AM30 °FClear.6 mph51%30.27 "Hg10 mi
Weather by CustomWeather, © 2015

See weather overviewHow to use our weather pages